Weather History for Hot Springs, VA

Change the Weather History Date:

Monday, September 26, 2011

  Actual Average Record
Temperature  
Mean Temperature 60 °F -  
Max Temperature 62 °F 62 °F 84 °F (1998)
Min Temperature 59 °F 48 °F 33 °F (2002)
Degree Days  
Heating Degree Days 4    
Growing Degree Days 10 (Base 50)    
Moisture  
Dew Point 61 °F    
Average Humidity 100    
Maximum Humidity 100    
Minimum Humidity 100    
Precipitation  
Precipitation 0.01 in - - ()
Sea Level Pressure  
Sea Level Pressure 30.10 in    
Wind  
Wind Speed 8 mph (SSE)    
Max Wind Speed 12 mph    
Max Gust Speed 20 mph    
Averages and records for this station are not official NWS values.
T = Trace of Precipitation, MM = Missing Value Source: NWS Daily Summary

Daily Weather History Graph

Daily Weather History Graph

Search for Another Location

Airport:

Trip Planner

Search our weather history database for the weather conditions in past years. The results will help you decide how hot, cold, wet, or windy it might be!

Date:

Astronomy

Sep. 26, 2011 Rise Set
Actual Time 7:10 AM EDT 7:10 PM EDT
Civil Twilight 6:44 AM EDT 7:36 PM EDT
Nautical Twilight 6:13 AM EDT 8:07 PM EDT
Astronomical Twilight 5:42 AM EDT 8:38 PM EDT
Moon 6:08 AM EDT (9/26) 6:25 PM EDT (9/26)
Length of Visible Light 12h 52m
Length of Day
12h 00m
Waning Crescent, 1% of the Moon is Illuminated
Sep 26
Waning Crescent
Sep 27
New
Oct 3
First Quarter
Oct 11
Full
Oct 19
Last Quarter

Hourly Weather History & Observations

Time (EDT) Temp. Dew Point Humidity Pressure Visibility Wind Dir Wind Speed Gust Speed Precip Events Conditions
12:16 AM 60.8 °F 60.8 °F 100% 30.13 in 0.2 mi SE 9.2 mph - N/A   Heavy Drizzle
12:36 AM 60.8 °F 60.8 °F 100% 30.14 in 0.2 mi SSE 6.9 mph - N/A   Heavy Drizzle
12:58 AM 60.8 °F 60.8 °F 100% 30.13 in 0.2 mi SE 8.1 mph - N/A   Drizzle
1:16 AM 60.8 °F 60.8 °F 100% 30.13 in 0.2 mi SE 9.2 mph - N/A   Drizzle
1:36 AM 62.6 °F 62.6 °F 100% 30.12 in 0.2 mi SSE 10.4 mph 17.3 mph N/A   Drizzle
1:56 AM 62.6 °F 62.6 °F 100% 30.12 in 0.2 mi SE 5.8 mph 16.1 mph N/A   Heavy Drizzle
2:16 AM 62.6 °F 62.6 °F 100% 30.11 in 0.2 mi SE 9.2 mph 16.1 mph N/A   Heavy Drizzle
2:36 AM 62.6 °F 62.6 °F 100% 30.11 in 0.2 mi SSE 11.5 mph 18.4 mph N/A Rain Heavy Rain
2:56 AM 60.8 °F 60.8 °F 100% 30.09 in 0.2 mi SE 11.5 mph 17.3 mph N/A   Heavy Drizzle
3:16 AM 62.6 °F 62.6 °F 100% 30.10 in 0.2 mi South 8.1 mph - N/A Rain Heavy Rain
3:36 AM 60.8 °F 60.8 °F 100% 30.10 in 0.2 mi South 6.9 mph - N/A   Drizzle
3:56 AM 60.8 °F 60.8 °F 100% 30.09 in 0.2 mi SSE 6.9 mph - N/A   Drizzle
4:16 AM 60.8 °F 60.8 °F 100% 30.09 in 0.2 mi South 5.8 mph - N/A   Drizzle
4:36 AM 60.8 °F 60.8 °F 100% 30.08 in 0.2 mi SSE 5.8 mph - N/A Fog Fog
4:56 AM 60.8 °F 60.8 °F 100% 30.09 in 0.2 mi SSE 9.2 mph - N/A Fog Fog
5:16 AM 60.8 °F 60.8 °F 100% 30.09 in 0.2 mi SSE 10.4 mph - N/A Fog Fog
5:36 AM 60.8 °F 60.8 °F 100% 30.08 in 0.2 mi SSE 10.4 mph - N/A Fog Fog
5:58 AM 60.8 °F 60.8 °F 100% 30.08 in 0.2 mi SSE 6.9 mph 17.3 mph N/A Fog Fog
6:16 AM 59.0 °F 59.0 °F 100% 30.09 in 0.2 mi SSE 9.2 mph - N/A Fog Fog
6:35 AM 59.0 °F 59.0 °F 100% 30.09 in 0.8 mi South 9.2 mph - N/A   Overcast
6:56 AM 59.0 °F 59.0 °F 100% 30.10 in 0.5 mi SSE 5.8 mph - N/A Fog Fog
7:16 AM 59.0 °F 59.0 °F 100% 30.11 in 0.2 mi SSE 6.9 mph - N/A Fog Fog
7:36 AM 59.0 °F 59.0 °F 100% 30.12 in 0.8 mi South 6.9 mph - N/A   Overcast
7:58 AM 60.8 °F 60.8 °F 100% 30.12 in 0.2 mi SSE 8.1 mph - N/A Fog Fog
8:16 AM 60.8 °F 60.8 °F 100% 30.13 in 0.2 mi South 8.1 mph - N/A Fog Fog
8:36 AM 60.8 °F 60.8 °F 100% 30.12 in 0.2 mi SE 5.8 mph - N/A Fog Fog
8:58 AM 60.8 °F 60.8 °F 100% 30.12 in 0.2 mi Calm Calm - N/A Fog Fog
9:18 AM 60.8 °F 60.8 °F 100% 30.12 in 0.2 mi SE 6.9 mph - N/A Fog Fog
9:36 AM 60.8 °F 60.8 °F 100% 30.12 in 0.2 mi ESE 8.1 mph - N/A Fog Fog
9:56 AM 60.8 °F 60.8 °F 100% 30.13 in 0.2 mi ESE 6.9 mph - N/A Fog Fog
10:16 AM 60.8 °F 60.8 °F 100% 30.14 in 0.2 mi SE 4.6 mph - N/A Fog Fog
10:36 AM 60.8 °F 60.8 °F 100% 30.13 in 0.2 mi SE 9.2 mph - N/A   Light Drizzle
11:16 AM 60.8 °F 60.8 °F 100% 30.12 in 0.2 mi SE 8.1 mph - N/A   Drizzle
11:36 AM 60.8 °F 60.8 °F 100% 30.12 in 0.2 mi SE 8.1 mph - N/A   Heavy Drizzle
11:56 AM 60.8 °F 60.8 °F 100% 30.13 in 0.2 mi SSE 3.5 mph - N/A Rain Heavy Rain
12:16 PM 60.8 °F 60.8 °F 100% 30.13 in 0.2 mi South 5.8 mph - N/A   Heavy Drizzle
12:36 PM 62.6 °F 62.6 °F 100% 30.12 in 0.2 mi South 6.9 mph - N/A   Heavy Drizzle
12:57 PM 62.6 °F 62.6 °F 100% 30.12 in 0.2 mi South 6.9 mph - N/A   Heavy Drizzle
1:15 PM 62.6 °F 62.6 °F 100% 30.12 in 0.2 mi SSE 5.8 mph - N/A Rain Heavy Rain
1:35 PM 62.6 °F 62.6 °F 100% 30.12 in 0.2 mi South 5.8 mph - N/A Rain Heavy Rain
1:57 PM 62.6 °F 62.6 °F 100% 30.10 in 0.2 mi SSE 8.1 mph - N/A   Heavy Drizzle
2:15 PM 62.6 °F 62.6 °F 100% 30.10 in 0.2 mi SSE 6.9 mph - N/A   Heavy Drizzle
2:35 PM 62.6 °F 62.6 °F 100% 30.11 in 0.2 mi South 6.9 mph - N/A Rain Heavy Rain
3:15 PM 62.6 °F 62.6 °F 100% 30.09 in 0.2 mi SE 8.1 mph - N/A   Heavy Drizzle
3:35 PM 62.6 °F 62.6 °F 100% 30.08 in 0.2 mi SSE 10.4 mph - N/A   Drizzle
3:56 PM 62.6 °F 62.6 °F 100% 30.08 in 0.2 mi SSE 9.2 mph - N/A   Drizzle
4:15 PM 62.6 °F 62.6 °F 100% 30.07 in 0.2 mi SSE 9.2 mph - N/A Rain Rain
4:36 PM 62.6 °F 62.6 °F 100% 30.07 in 0.2 mi South 8.1 mph - N/A   Drizzle
4:57 PM 62.6 °F 62.6 °F 100% 30.07 in 0.2 mi South 6.9 mph - N/A   Drizzle
5:15 PM 62.6 °F 62.6 °F 100% 30.07 in 0.2 mi SSE 4.6 mph - N/A   Heavy Drizzle
5:35 PM 62.6 °F 62.6 °F 100% 30.07 in 0.2 mi SE 4.6 mph 9.2 mph N/A Rain Heavy Rain
5:58 PM 62.6 °F 62.6 °F 100% 30.08 in 0.2 mi South 10.4 mph 16.1 mph N/A   Heavy Drizzle
6:15 PM 62.6 °F 62.6 °F 100% 30.08 in 0.2 mi South 8.1 mph - N/A   Heavy Drizzle
6:37 PM 62.6 °F 62.6 °F 100% 30.07 in 0.2 mi SSE 6.9 mph - N/A   Heavy Drizzle
6:55 PM 62.6 °F 62.6 °F 100% 30.06 in 0.2 mi SE 5.8 mph - N/A   Heavy Drizzle
7:15 PM 62.6 °F 62.6 °F 100% 30.06 in 0.2 mi SSE 11.5 mph - 0.01 in Rain Heavy Rain
7:35 PM 62.6 °F 62.6 °F 100% 30.06 in 0.2 mi SSE 11.5 mph 19.6 mph 0.01 in   Drizzle
7:55 PM 62.6 °F 62.6 °F 100% 30.07 in 0.2 mi South 10.4 mph 18.4 mph N/A   Heavy Drizzle
8:16 PM 62.6 °F 62.6 °F 100% 30.07 in 0.2 mi SSE 8.1 mph - N/A Rain Heavy Rain
8:59 PM 62.6 °F 62.6 °F 100% 30.07 in 0.2 mi SSE 13.8 mph 20.7 mph N/A   Heavy Drizzle
9:18 PM 62.6 °F 62.6 °F 100% 30.08 in 0.2 mi South 10.4 mph - N/A   Heavy Drizzle
9:35 PM 62.6 °F 62.6 °F 100% 30.09 in 0.2 mi South 11.5 mph 20.7 mph N/A   Heavy Drizzle
9:55 PM 64.4 °F 64.4 °F 100% 30.08 in 0.2 mi South 12.7 mph 18.4 mph N/A Rain Heavy Rain
10:15 PM 62.6 °F 62.6 °F 100% 30.08 in 0.2 mi South 8.1 mph 16.1 mph N/A   Drizzle
10:35 PM 62.6 °F 62.6 °F 100% 30.07 in 0.2 mi South 13.8 mph 19.6 mph N/A   Drizzle
10:55 PM 62.6 °F 62.6 °F 100% 30.07 in 0.2 mi SSE 8.1 mph 18.4 mph N/A Fog Fog
11:17 PM 64.4 °F 64.4 °F 100% 30.07 in 0.2 mi South 9.2 mph 17.3 mph N/A Fog Fog
11:35 PM 64.4 °F 64.4 °F 100% 30.06 in 0.2 mi South 10.4 mph 16.1 mph N/A Fog Fog
11:55 PM 64.4 °F 64.4 °F 100% 30.05 in 0.2 mi South 8.1 mph 16.1 mph N/A Fog Fog